Temperature
19 19 18 18 19 19 19 19 19 20 20 20 20 19 18 17 16 15 15 14 14 14 13 13 13 13 13 13 13 13 13 13 12 12 12 12 12 12 12 12 11 11 11 11
18 18 18 17 18 18 18 18 19 19 19 19 19 18 17 17 16 15 15 14 14 14 13 13 13 13 13 13 13 13 12 12 12 12 12 12 12 12 11 11 11 11 11 11
18 18 17 17 18 18 18 18 18 18 19 18 18 18 17 16 15 15 14 14 14 14 13 13 13 13 13 12 12 12 12 12 12 12 12 11 11 11 11 11 11 10 10 10
17 17 16 18 18 18 18 18 18 18 18 17 17 16 16 15 15 15 14 14 13 13 13 13 13 13 12 12 12 12 12 12 12 11 11 11 11 11 11 10 10 10 10 10
16 16 17 17 17 17 17 17 17 17 17 16 16 16 16 15 14 14 14 13 13 13 13 12 12 12 12 12 11 11 11 11 11 11 11 11 11 10 10 10 10 10 10 10
16 16 16 17 17 16 17 17 17 17 17 16 16 17 17 14 13 13 13 13 12 12 12 12 12 12 11 11 11 11 11 11 11 10 10 10 10 10 10 10 10 10 10 9
16 16 17 17 15 16 16 17 16 15 16 15 16 16 15 14 13 12 12 12 12 12 12 11 11 11 11 11 11 11 10 10 10 10 10 10 10 10 10 10 9 9 9 9
15 15 16 15 15 16 17 16 15 15 14 14 14 14 13 13 12 12 12 12 12 11 11 11 11 11 10 10 10 10 10 10 9 9 9 9 9 9 9 9 9 9 8 8
15 16 15 14 14 14 14 14 14 14 13 13 12 12 12 12 12 12 11 11 11 11 11 11 10 10 10 10 10 9 9 9 9 9 9 9 9 9 9 9 8 8 8 8
15 15 14 13 13 13 13 13 13 13 12 12 12 12 12 12 12 11 11 11 11 10 10 10 10 10 10 10 9 9 9 9 9 9 9 8 8 8 8 8 8 8 8 7
14 15 14 13 13 13 12 12 12 12 12 12 11 11 11 11 11 11 10 10 10 10 10 10 10 10 9 9 9 9 9 9 8 8 8 8 8 8 8 8 8 7 7 7
14 15 15 14 13 12 12 12 12 11 11 11 11 11 11 11 10 10 10 10 10 9 9 9 9 9 9 9 8 8 8 8 8 8 8 7 7 7 7 7 7 7 7 7
13 13 12 12 12 11 11 11 11 11 11 11 11 10 10 10 10 10 9 9 9 9 9 9 9 9 9 8 8 8 8 8 7 7 7 7 7 7 7 7 7 7 7 6
11 11 11 11 11 11 11 10 10 10 10 10 10 10 10 10 9 9 9 9 9 9 9 8 8 8 8 8 8 8 7 7 7 7 7 7 6 6 6 6 6 6 6 6
11 11 11 11 10 10 10 10 10 10 10 10 10 10 9 9 9 9 9 9 9 8 8 8 8 8 8 8 7 7 7 7 7 6 6 6 6 6 6 6 5 5 5 5
10 10 10 10 10 10 10 10 10 10 10 9 9 9 9 9 9 8 8 8 8 8 8 8 8 8 7 7 7 7 7 6 6 6 6 6 5 5 5 5 5 5 5 4
10 10 10 10 10 9 9 9 9 9 9 9 9 9 8 8 8 8 8 8 8 8 8 7 7 7 7 7 7 6 6 6 6 6 5 5 5 5 5 5 4 4 4 4
10 10 10 10 9 9 9 9 9 9 8 8 8 8 8 8 8 8 8 8 7 7 7 7 7 7 7 6 6 6 6 6 5 5 5 5 5 4 4 4 4 4 4 3
10 10 9 9 9 9 8 8 8 8 8 8 8 8 7 7 7 7 7 7 7 7 7 7 7 6 6 6 6 6 5 5 5 5 5 4 4 4 4 4 4 3 3 3
9 9 9 9 8 8 8 8 8 8 8 7 7 7 7 7 7 7 7 7 7 7 6 6 6 6 6 5 5 5 5 5 5 4 4 4 4 4 4 4 3 3 3 3
9 8 8 8 8 8 8 8 7 7 7 7 7 7 7 7 6 6 6 6 6 6 6 6 6 5 5 5 5 5 4 4 4 4 4 4 3 3 3 3 3 3 3 2
8 8 8 8 8 7 7 7 7 7 7 7 7 6 6 6 6 6 6 6 6 6 5 5 5 5 5 5 4 4 4 4 4 3 3 3 3 3 3 3 3 2 2 2
7 7 7 7 7 7 7 7 7 7 6 6 6 6 6 6 5 5 5 5 5 5 5 5 5 4 4 4 4 4 4 4 3 3 3 3 3 2 2 2 2 2 2 2
7 7 7 7 7 7 6 6 6 6 6 6 6 5 5 5 5 5 5 5 5 4 4 4 4 4 4 4 3 3 3 3 3 3 2 2 2 2 2 2 2 2 2 1
6 6 6 6 6 6 6 6 6 5 5 5 5 5 5 5 4 4 4 4 4 4 4 4 3 3 3 3 3 3 3 2 2 2 2 2 2 2 2 2 2 1 1 1
6 6 6 5 5 5 5 5 5 5 5 4 4 4 4 4 4 4 4 3 3 3 3 3 3 3 3 2 2 2 2 2 2 2 2 2 2 1 1 1 1 1 1 1
5 5 5 5 5 5 5 4 4 4 4 4 3 3 3 3 3 3 3 3 3 3 2 2 2 2 2 2 2 1 1 1 1 1 1 1 1 1 1 1 1 0 0 0
Wind_Speed
7 6 7 9 10 11 12 12 12 12 11 8 5 4 3 3 3 2 2 1 1 1 1 1 1 1 2 2 3 4 5 5 6 6 6 6 6 6 7 7 7 7 7 7
7 6 7 10 11 12 13 13 14 13 12 7 5 3 3 3 3 3 2 2 2 2 2 2 2 2 2 2 2 4 4 5 5 5 5 6 6 6 6 6 7 7 7 7
7 6 8 10 11 12 11 10 11 12 8 5 5 4 4 3 3 3 3 3 3 3 2 2 2 2 2 2 2 3 4 4 4 5 5 5 5 6 6 6 6 7 7 7
6 6 9 4 2 6 8 8 7 7 5 5 5 5 4 4 4 5 4 4 4 3 3 3 2 2 2 2 2 3 3 4 4 4 5 5 5 5 6 6 6 6 7 7
5 7 8 5 4 5 7 7 6 7 6 4 4 4 5 4 4 5 4 4 4 4 3 3 2 3 2 2 2 3 3 3 3 4 4 4 5 5 5 5 6 6 6 7
6 7 6 3 2 2 4 6 4 5 6 5 5 6 4 2 3 4 4 3 3 3 3 3 2 3 3 3 3 3 3 3 3 3 4 4 5 5 4 5 5 5 6 6
9 8 6 1 1 4 6 2 1 2 4 5 6 6 3 3 4 4 4 3 3 3 3 3 3 3 3 3 3 3 3 3 3 3 4 4 4 4 4 4 5 5 6 6
6 7 5 2 3 4 3 2 2 3 4 4 5 5 4 4 4 4 4 3 3 3 3 2 3 3 3 3 2 2 2 2 3 3 3 3 3 3 4 4 4 5 5 5
5 5 2 2 3 3 4 4 4 4 5 5 5 5 5 5 4 4 4 3 3 3 3 3 3 3 3 2 2 2 3 3 3 3 3 3 3 3 3 3 4 4 4 4
6 7 6 5 6 5 4 5 5 5 5 5 5 5 5 5 4 4 4 4 3 4 3 3 3 3 3 2 2 3 3 3 3 3 3 3 3 3 3 3 3 3 3 4
9 8 7 7 6 6 6 5 5 5 4 5 5 5 5 5 4 4 3 3 4 4 4 4 3 3 3 2 3 3 3 3 3 3 3 3 3 2 3 3 3 3 3 3
8 7 6 6 5 5 5 5 5 5 5 4 4 5 4 4 3 3 3 4 4 4 4 4 3 4 3 3 3 4 3 3 3 3 3 3 3 2 1 2 1 2 2 3
9 7 7 7 6 5 5 4 4 5 5 5 4 4 4 3 3 3 4 4 5 5 4 4 4 4 3 3 4 4 4 4 3 3 3 3 4 4 3 2 2 3 3 3
8 7 7 7 6 4 4 4 4 4 4 4 4 3 3 3 3 4 4 4 4 4 4 4 4 4 4 3 4 4 4 3 3 3 3 4 4 4 4 4 3 2 2 3
8 8 7 6 5 4 4 3 4 4 4 3 3 3 3 4 4 4 4 4 4 4 4 4 4 4 3 4 4 5 4 3 3 3 3 4 4 4 4 4 4 3 2 2
6 6 7 7 6 5 5 5 5 5 4 4 4 4 4 4 4 4 4 4 4 5 5 5 5 4 3 4 4 4 4 3 4 4 4 4 4 4 4 4 3 3 3 2
7 7 7 7 7 7 6 6 6 5 5 5 4 4 4 4 4 4 4 4 5 5 5 5 5 4 4 4 4 4 3 3 4 4 4 4 3 4 4 4 4 3 3 2
8 8 8 8 7 7 6 6 6 6 5 5 4 4 4 4 5 5 4 4 4 5 5 4 3 3 3 4 4 3 3 3 3 4 3 3 3 4 4 4 4 4 3 3
7 7 7 7 6 6 6 6 5 5 4 4 4 4 5 5 5 5 4 4 5 5 4 3 2 3 3 3 3 3 4 4 4 4 3 3 4 4 4 4 4 4 4 3
5 4 5 5 5 5 5 5 5 4 4 4 4 4 5 5 5 5 4 5 5 4 3 3 3 3 3 3 3 3 4 4 4 4 4 4 4 4 4 4 4 4 4 4
4 4 4 4 4 4 4 5 4 4 4 4 4 5 5 5 4 4 4 4 4 3 3 2 3 3 3 2 3 3 4 4 4 4 4 4 4 4 4 4 4 4 3 3
3 3 3 3 3 3 4 4 4 4 4 4 4 4 4 4 4 4 4 4 3 2 2 3 3 2 2 3 3 3 4 4 4 4 4 4 4 4 4 4 4 4 3 3
4 4 4 4 4 3 4 4 4 4 4 4 4 4 4 4 4 4 4 3 2 2 2 2 2 1 2 3 3 3 3 4 3 3 3 3 3 4 4 4 4 4 3 3
3 3 4 3 3 3 4 4 4 3 4 3 3 4 4 4 3 3 3 1 1 2 2 1 1 2 3 3 2 2 3 3 3 3 3 3 3 3 3 3 3 3 3 3
3 3 3 4 4 4 4 4 3 3 3 3 3 3 3 3 3 2 2 2 1 2 2 1 1 2 2 2 2 2 2 2 2 2 2 2 2 3 3 3 3 3 3 3
4 3 3 4 4 4 4 3 3 3 3 3 2 2 2 1 1 1 1 1 1 1 1 1 1 1 1 1 1 1 1 1 1 1 2 2 2 2 2 2 3 2 2 3
3 3 3 3 3 3 3 3 3 3 3 3 2 2 1 0 0 1 1 1 1 1 1 1 1 1 1 0 0 0 0 0 1 1 1 1 1 1 1 2 2 1 1 2
Wind_Direction
257 259 252 256 251 239 239 248 255 263 264 262 266 264 251 223 203 194 196 185 189 187 185 185 184 193 215 220 214 211 211 216 224 228 227 230 231 233 237 240 240 237 236 235
250 242 248 256 255 248 246 248 250 257 263 265 264 253 240 220 211 214 225 232 233 231 214 219 219 217 221 229 227 216 214 221 225 230 230 232 235 235 238 242 242 241 239 235
254 248 256 252 244 238 236 236 240 250 257 252 251 251 255 244 232 242 248 247 245 247 248 242 239 235 235 238 235 226 222 224 221 224 230 235 238 239 239 241 241 240 238 237
261 251 246 256 238 237 236 239 239 245 250 252 266 268 255 246 251 256 255 250 248 252 253 240 234 235 233 228 228 230 231 231 229 227 229 233 237 241 243 242 239 240 241 239
243 252 261 250 224 222 227 241 239 237 239 247 268 263 245 240 265 268 263 253 248 248 244 225 220 216 210 216 225 231 242 244 240 236 236 235 236 241 243 242 241 240 241 241
234 246 251 248 185 216 237 240 215 229 237 237 236 256 261 244 266 269 265 255 246 244 229 218 216 210 208 217 228 239 248 253 249 244 237 239 243 245 244 241 243 244 244 243
236 243 256 286 148 178 222 268 143 245 251 240 239 264 285 261 263 264 256 250 242 228 221 219 211 205 218 231 243 253 260 260 258 256 250 246 247 248 245 244 246 246 246 244
225 232 245 128 165 214 293 348 259 265 265 266 270 278 272 263 259 252 245 240 230 217 213 211 206 210 226 247 260 261 259 258 260 262 260 253 245 247 244 241 243 245 250 251
233 247 317 192 240 287 303 280 278 278 276 271 273 273 269 262 253 246 242 235 226 217 207 212 215 223 237 256 264 259 257 260 266 268 266 256 241 236 237 238 240 243 247 254
249 255 261 260 263 274 277 275 280 278 270 259 262 266 264 261 252 240 235 226 223 217 215 219 225 238 248 249 248 249 257 265 264 268 271 265 250 236 233 232 235 239 244 252
249 261 265 256 255 263 271 273 276 275 268 261 260 263 262 258 244 233 223 218 220 223 226 225 225 236 244 240 242 255 261 264 265 263 263 262 255 254 245 238 246 249 246 247
251 257 261 270 277 274 264 262 265 270 272 266 259 258 256 250 241 234 228 221 225 228 231 233 234 239 242 242 243 252 262 265 268 267 262 255 251 242 239 260 241 252 287 277
265 275 273 273 277 271 265 270 274 271 270 269 264 250 247 250 248 241 234 231 231 232 236 238 240 246 246 243 242 248 257 264 268 266 260 254 249 242 240 223 195 203 217 236
253 258 257 253 260 266 266 276 280 279 276 268 261 251 248 252 252 248 243 240 240 240 241 243 245 248 248 244 246 249 256 259 258 259 261 257 253 250 245 244 243 239 206 196
246 249 250 255 257 261 267 270 268 272 273 263 257 253 249 251 257 260 254 245 243 243 247 249 252 257 256 246 245 248 252 256 258 260 258 255 253 248 242 241 242 244 241 193
246 247 240 240 243 249 254 258 262 268 269 263 258 255 254 255 262 265 257 244 240 245 251 252 256 258 252 245 245 248 253 254 257 254 251 250 248 246 240 240 240 237 235 229
238 244 240 239 241 245 251 257 263 269 271 265 261 260 258 257 258 261 259 254 253 254 253 254 256 255 247 243 245 247 249 243 240 248 247 246 247 246 244 241 239 240 238 221
243 249 249 244 244 248 254 258 263 265 264 265 265 259 257 259 262 265 262 260 261 264 263 255 251 249 247 248 251 249 246 248 244 245 244 243 245 245 245 243 241 241 241 212
247 247 247 245 245 247 249 254 261 267 269 265 259 257 261 266 269 271 265 259 260 265 269 263 251 249 254 254 259 250 245 244 242 241 236 231 234 240 241 243 242 239 236 228
252 248 240 241 239 241 248 254 260 264 267 263 260 262 266 270 271 268 262 260 260 265 268 265 255 255 256 250 246 249 247 244 240 239 236 233 231 236 238 239 242 241 237 234
250 243 233 234 241 246 252 257 259 263 269 261 256 261 269 274 271 264 260 266 271 272 270 262 258 259 258 256 242 248 245 244 243 239 237 234 233 234 235 233 233 236 239 240
254 242 234 233 238 249 258 260 259 262 267 265 264 266 266 267 267 266 262 265 269 260 257 254 255 263 252 253 249 248 245 243 243 241 241 240 238 237 238 237 237 237 239 240
259 249 240 239 243 251 262 263 259 257 259 263 265 263 261 265 265 264 269 272 262 248 251 256 261 247 254 255 250 244 244 244 242 240 239 240 242 241 238 240 240 237 235 234
257 253 254 254 246 245 256 265 264 261 261 264 263 262 260 260 264 266 274 248 247 254 259 246 240 254 261 257 242 242 246 247 247 246 246 243 238 237 237 237 236 233 232 232
258 256 254 250 249 254 261 266 265 264 261 266 270 269 263 259 260 265 269 258 244 260 270 257 248 259 256 245 239 242 244 242 245 248 247 244 242 241 240 235 232 230 228 225
256 251 252 253 258 260 257 254 255 259 262 263 267 275 278 277 268 259 254 251 253 274 284 279 274 270 263 254 253 250 246 240 243 249 252 251 241 240 233 221 219 219 221 221
256 257 258 259 260 255 251 249 250 254 252 248 256 269 274 267 241 226 232 257 269 268 287 292 290 285 277 280 296 293 275 279 273 268 263 255 242 235 218 213 214 208 209 207
Height
1497 1498 1499 1499 1499 1499 1499 1497 1497 1492 1492 1491 1493 1497 1499 1500 1501 1501 1502 1502 1503 1503 1503 1504 1504 1505 1505 1506 1506 1507 1508 1508 1509 1510 1511 1511 1512 1513 1513 1514 1514 1515 1515 1515
1498 1497 1498 1499 1497 1496 1496 1495 1494 1493 1493 1492 1494 1496 1497 1498 1499 1500 1500 1501 1501 1501 1502 1502 1502 1503 1503 1503 1504 1505 1505 1505 1506 1507 1507 1508 1508 1509 1510 1510 1510 1510 1511 1511
1497 1496 1496 1496 1491 1491 1491 1490 1491 1491 1491 1493 1493 1494 1496 1497 1498 1498 1498 1499 1499 1499 1499 1500 1500 1500 1500 1501 1501 1502 1502 1503 1503 1503 1504 1504 1505 1505 1505 1506 1506 1506 1506 1506
1497 1498 1502 1488 1487 1487 1488 1488 1488 1489 1490 1492 1493 1493 1494 1495 1496 1496 1496 1497 1497 1497 1497 1498 1498 1498 1498 1499 1499 1499 1499 1500 1500 1500 1500 1501 1501 1501 1502 1502 1502 1502 1502 1502
1498 1496 1490 1486 1486 1487 1487 1487 1487 1488 1489 1491 1492 1492 1491 1492 1493 1494 1494 1494 1494 1495 1495 1495 1495 1495 1496 1496 1496 1496 1496 1496 1496 1497 1497 1497 1497 1497 1497 1498 1498 1498 1498 1498
1497 1497 1492 1484 1484 1487 1488 1486 1485 1486 1487 1489 1489 1488 1487 1490 1491 1491 1491 1491 1491 1492 1492 1492 1492 1492 1493 1493 1493 1493 1493 1493 1493 1494 1494 1493 1494 1494 1494 1494 1494 1494 1494 1494
1492 1491 1484 1482 1485 1486 1490 1484 1485 1486 1486 1487 1486 1486 1488 1488 1488 1488 1488 1489 1489 1489 1489 1489 1489 1489 1490 1490 1490 1490 1490 1490 1490 1490 1490 1490 1490 1490 1490 1490 1490 1490 1490 1489
1489 1490 1487 1484 1485 1484 1483 1483 1484 1485 1485 1485 1485 1485 1485 1485 1485 1485 1485 1486 1486 1486 1486 1486 1487 1487 1487 1488 1487 1487 1487 1487 1487 1487 1487 1486 1486 1486 1486 1486 1486 1486 1486 1485
1484 1484 1482 1484 1483 1484 1484 1483 1483 1484 1484 1484 1483 1482 1482 1482 1482 1482 1482 1483 1483 1483 1483 1484 1484 1484 1485 1485 1484 1484 1484 1484 1483 1483 1483 1483 1483 1482 1482 1482 1482 1482 1482 1481
1482 1480 1482 1483 1482 1482 1482 1482 1482 1482 1481 1481 1480 1479 1479 1478 1478 1479 1479 1479 1480 1480 1480 1481 1481 1481 1482 1482 1482 1482 1481 1481 1480 1480 1480 1480 1479 1479 1478 1478 1478 1477 1477 1477
1479 1479 1479 1479 1480 1480 1480 1479 1479 1479 1478 1478 1477 1476 1475 1475 1475 1476 1476 1476 1477 1477 1477 1478 1478 1478 1479 1479 1479 1479 1478 1477 1477 1477 1476 1476 1476 1475 1475 1474 1474 1474 1474 1473
1475 1476 1476 1476 1477 1477 1477 1477 1476 1476 1475 1474 1474 1473 1473 1472 1472 1473 1473 1473 1474 1474 1474 1475 1474 1475 1475 1475 1475 1475 1474 1474 1474 1473 1473 1472 1472 1471 1470 1470 1470 1470 1470 1470
1474 1474 1475 1474 1474 1474 1474 1474 1473 1473 1472 1471 1471 1470 1470 1470 1470 1470 1470 1470 1470 1470 1471 1471 1471 1471 1472 1472 1472 1471 1471 1470 1470 1469 1469 1468 1468 1467 1467 1466 1466 1466 1466 1466
1471 1472 1471 1471 1471 1471 1471 1471 1470 1470 1469 1469 1468 1468 1467 1467 1467 1467 1467 1467 1467 1467 1467 1468 1468 1468 1468 1468 1468 1468 1467 1467 1466 1466 1465 1464 1464 1463 1463 1462 1462 1461 1462 1462
1468 1468 1468 1468 1468 1468 1468 1468 1467 1467 1466 1466 1465 1465 1465 1464 1464 1464 1464 1464 1464 1464 1464 1464 1464 1464 1464 1464 1464 1464 1464 1463 1462 1462 1461 1461 1460 1460 1459 1458 1458 1458 1457 1457
1464 1464 1464 1464 1464 1464 1465 1465 1464 1464 1464 1463 1462 1462 1462 1461 1461 1461 1461 1461 1460 1460 1460 1460 1460 1460 1460 1460 1460 1459 1459 1459 1458 1458 1457 1456 1456 1455 1455 1454 1454 1454 1453 1453
1460 1460 1460 1460 1461 1461 1461 1461 1461 1461 1460 1460 1459 1459 1459 1458 1458 1457 1457 1457 1457 1457 1457 1456 1456 1456 1456 1456 1456 1455 1455 1454 1454 1454 1453 1453 1452 1451 1451 1450 1450 1450 1449 1449
1456 1457 1457 1457 1457 1458 1458 1458 1458 1458 1457 1456 1456 1455 1455 1455 1454 1454 1454 1454 1453 1453 1453 1453 1452 1452 1452 1452 1452 1451 1451 1451 1450 1450 1449 1449 1448 1448 1447 1446 1446 1445 1445 1445
1453 1453 1453 1454 1454 1454 1454 1455 1455 1454 1453 1453 1453 1452 1452 1452 1451 1451 1450 1450 1449 1449 1449 1449 1448 1448 1448 1448 1447 1447 1447 1446 1446 1446 1445 1445 1444 1444 1443 1443 1442 1442 1441 1441
1449 1450 1450 1450 1451 1451 1451 1451 1451 1451 1451 1450 1450 1449 1449 1449 1448 1447 1447 1446 1446 1446 1445 1445 1445 1444 1444 1444 1443 1443 1443 1442 1442 1441 1441 1440 1440 1439 1439 1439 1438 1438 1437 1437
1447 1447 1447 1447 1447 1448 1448 1448 1448 1447 1447 1447 1447 1446 1445 1445 1445 1444 1443 1443 1442 1442 1442 1441 1441 1440 1440 1440 1439 1439 1438 1438 1437 1437 1436 1436 1435 1435 1435 1434 1434 1434 1433 1433
1444 1444 1444 1444 1444 1444 1445 1445 1445 1444 1444 1443 1443 1443 1442 1442 1441 1441 1440 1440 1439 1438 1438 1438 1437 1437 1436 1435 1435 1434 1434 1433 1433 1432 1432 1432 1431 1431 1430 1430 1430 1430 1429 1429
1441 1441 1441 1441 1441 1441 1441 1441 1441 1441 1440 1440 1439 1439 1439 1438 1438 1437 1437 1436 1436 1435 1434 1434 1433 1432 1432 1431 1430 1430 1429 1429 1428 1428 1428 1427 1427 1427 1426 1426 1426 1426 1425 1425
1437 1437 1438 1438 1438 1438 1437 1437 1437 1437 1437 1436 1436 1435 1435 1434 1434 1434 1433 1432 1432 1431 1431 1430 1429 1428 1427 1427 1426 1426 1425 1425 1425 1424 1424 1424 1423 1423 1423 1422 1422 1422 1422 1422
1434 1434 1434 1434 1434 1434 1434 1434 1433 1433 1433 1432 1432 1431 1431 1430 1430 1429 1429 1428 1428 1427 1427 1426 1425 1424 1423 1423 1422 1422 1422 1421 1421 1421 1420 1420 1420 1419 1419 1419 1419 1419 1418 1418
1431 1430 1430 1430 1430 1430 1430 1430 1429 1429 1429 1428 1428 1428 1427 1426 1426 1426 1425 1425 1424 1424 1423 1423 1422 1421 1420 1420 1419 1419 1418 1418 1418 1417 1417 1417 1416 1416 1416 1416 1416 1416 1416 1415
1427 1427 1426 1426 1426 1426 1426 1425 1425 1425 1425 1425 1424 1424 1423 1422 1422 1422 1422 1421 1421 1420 1420 1420 1419 1418 1418 1417 1416 1416 1416 1416 1415 1415 1415 1414 1414 1414 1413 1413 1413 1413 1413 1413